Location: Kumla
(59.1265°N, 15.1401°E)
Time: 07:14:28
(UTC+01:00)

Transit 4A - Pass Details

Date: 11 December 2023
Orbit: 870 x 973 km, 66.8° (Epoch: 02 March)

Event Time Altitude Azimuth Distance (km) Brightness Sun altitude
Rises 18:13:47 0° 184° (S) 3,658 11.2 -22.3°
Reaches altitude 10° 18:16:37 10° 175° (S) 2,710 10.3 -22.6°
Enters shadow 18:20:43 28° 138° (SE) 1,711 9.0 -23.2°
